Wind_Speed
22 21 18 15 12 12 14 16 20 24 27 31 33 36 38 41 44 47 49 56 59 61 64 65 66 66 66 68 74 75 75 76 83 92 81 75 66 55 37 29 22 22 29
26 24 22 19 16 14 14 16 18 23 26 29 33 36 37 38 42 46 48 51 57 59 63 68 71 68 68 73 80 80 77 79 86 95 83 72 58 45 32 30 33 33 29
28 27 25 24 20 17 15 16 18 22 26 28 31 34 36 37 40 46 48 49 55 63 67 67 68 70 73 78 83 79 78 82 88 96 83 70 53 37 28 31 30 26 24
31 29 28 27 25 21 17 16 18 20 25 27 29 33 35 37 39 43 47 47 54 60 66 69 72 73 81 81 84 82 80 83 86 94 89 69 47 30 27 26 22 21 22
33 31 31 29 27 25 21 17 18 20 24 27 29 31 34 37 38 41 46 50 47 55 63 70 75 77 85 84 82 82 80 84 87 94 92 71 47 30 21 22 22 17 18
35 32 33 31 29 27 25 20 19 21 23 27 29 31 34 36 37 39 45 50 45 51 56 66 72 76 84 88 82 83 83 86 88 92 93 77 49 26 18 16 18 16 11
35 35 33 31 30 27 27 24 21 22 23 27 29 31 33 36 37 39 42 46 41 47 56 59 68 74 79 87 85 86 85 91 88 92 98 83 57 25 14 12 14 15 13
35 34 34 33 30 28 27 26 23 23 23 26 29 30 33 35 36 38 40 45 46 43 50 54 63 68 77 82 87 88 89 90 90 94 99 91 71 39 13 12 10 13 9
36 37 34 32 29 28 28 27 25 25 25 26 28 29 31 34 36 37 39 42 48 43 46 50 60 67 73 82 85 87 95 90 89 91 96 97 87 64 27 10 10 13 13
35 37 35 33 30 30 30 28 26 26 26 27 28 28 30 32 35 36 37 40 45 40 41 49 55 61 69 76 83 82 100 88 85 88 95 97 99 87 61 30 14 12 12
33 32 34 36 34 34 32 31 29 27 28 28 28 27 28 30 34 35 35 38 41 38 41 44 52 58 61 72 75 79 93 93 84 83 91 97 103 98 88 59 30 19 17
32 33 34 34 31 32 31 32 32 30 29 28 26 27 28 29 31 33 34 35 40 42 40 43 47 51 60 63 71 72 82 91 89 81 86 90 99 101 97 91 63 33 22
33 32 34 32 27 27 28 30 32 32 31 31 30 29 29 29 30 31 31 32 36 39 40 43 45 50 49 58 66 69 71 85 88 87 83 89 94 95 96 95 89 67 37
42 38 39 37 32 33 34 33 32 34 36 34 33 31 30 28 29 30 30 29 33 36 38 41 42 46 43 57 63 66 66 76 85 93 88 89 93 96 96 94 94 89 75
49 47 49 48 45 41 40 38 36 36 37 36 34 31 29 27 27 29 28 27 29 32 34 40 40 42 44 51 61 60 63 64 75 85 89 88 92 92 94 95 95 92 89
54 54 51 50 48 47 42 40 36 36 35 34 33 30 30 29 26 26 26 25 25 29 33 36 38 38 43 44 52 57 56 59 68 75 83 87 90 90 90 92 97 97 93
53 52 53 51 46 45 41 39 37 36 35 32 32 30 29 30 27 26 23 22 23 25 29 34 35 38 38 41 42 52 55 56 60 67 74 82 84 82 87 87 91 95 95
51 49 49 46 44 41 38 37 38 36 35 34 33 30 30 29 28 25 22 21 20 23 26 32 32 35 37 40 40 44 51 52 55 60 67 71 78 85 82 86 87 90 91
48 46 45 45 44 42 37 37 39 40 38 34 32 31 32 29 27 25 21 18 19 21 26 26 25 31 35 36 37 39 45 48 51 55 62 63 72 75 81 82 86 87 85
51 48 46 43 44 44 40 40 39 41 39 34 33 32 32 28 28 26 23 17 18 21 20 21 24 26 32 36 32 35 41 44 46 50 54 59 61 69 73 80 82 89 84
53 51 48 47 45 44 40 38 40 42 39 35 34 34 31 29 27 27 26 20 17 17 17 26 24 20 28 36 37 37 38 40 43 48 50 53 58 65 67 73 77 84 92
54 53 54 52 50 47 43 39 39 38 39 38 38 35 32 29 29 28 26 16 18 23 21 25 23 20 22 30 36 37 35 38 40 42 48 53 55 58 62 65 69 79 81
53 53 55 53 52 48 43 39 37 37 39 41 39 35 32 32 30 28 29 23 21 27 26 27 27 24 25 27 39 38 33 35 43 40 45 50 53 54 56 60 62 68 77
52 52 54 55 54 49 43 40 39 38 39 41 40 35 34 35 32 30 29 24 24 24 28 30 26 31 39 28 30 38 33 33 39 39 45 48 50 50 53 53 58 61 64
55 56 55 53 52 51 46 43 41 40 41 40 38 36 37 37 36 33 32 31 29 29 25 26 30 35 35 26 25 37 34 32 40 43 41 47 46 49 50 53 53 59 57
59 57 56 54 53 54 51 48 44 45 45 41 40 40 41 40 39 38 36 34 31 32 35 31 37 36 39 37 35 34 33 39 40 40 43 45 49 51 47 52 52 57 56
Wind_Direction
237 247 258 272 292 316 331 344 347 351 357 1 3 5 9 11 13 12 14 15 8 7 6 13 10 5 2 0 360 2 359 360 2 358 353 348 347 345 355 3 21 65 85
234 246 256 265 278 297 316 329 338 342 349 354 359 4 4 6 9 11 11 11 10 9 11 13 9 6 4 3 3 2 2 3 4 360 357 355 356 360 19 56 76 78 81
236 243 255 262 270 281 301 316 326 335 340 349 351 358 360 2 5 9 10 15 19 16 17 16 14 7 7 7 6 4 5 8 8 3 2 1 5 20 62 75 76 79 73
234 242 251 260 265 271 283 302 314 326 333 340 346 351 356 358 2 5 6 11 16 18 24 19 18 15 15 10 8 5 8 11 10 8 7 6 13 34 68 66 73 71 64
235 240 249 256 263 270 276 288 303 316 327 331 340 346 351 355 358 1 3 10 21 24 21 22 20 20 20 13 9 8 8 13 13 13 11 10 17 36 57 57 53 62 52
238 241 247 254 261 268 274 282 293 307 319 324 331 340 345 351 354 357 360 5 20 17 17 13 19 20 20 18 11 11 10 14 17 15 15 15 15 26 42 45 38 42 44
243 244 247 255 262 268 272 278 288 299 311 317 324 332 340 345 350 353 355 1 8 10 16 14 21 21 22 19 14 14 10 15 19 18 19 17 20 19 19 13 17 25 25
239 243 246 252 257 264 270 275 285 295 303 311 317 326 334 340 345 350 352 356 3 6 10 12 16 18 21 21 18 15 13 15 17 19 22 22 23 25 15 10 12 26 18
246 243 245 248 255 261 268 275 282 290 299 306 310 320 327 335 339 347 349 351 354 4 10 16 13 16 19 21 20 17 17 16 16 20 23 24 27 29 28 3 326 306 332
253 245 248 251 253 259 266 273 279 286 294 302 306 315 322 329 336 343 346 348 350 5 7 6 8 12 18 20 23 17 19 18 16 20 22 27 27 31 32 33 37 2 346
249 250 252 253 256 258 264 269 274 280 289 294 300 309 317 324 330 339 343 347 349 359 357 359 6 12 12 19 23 21 20 22 18 19 23 28 27 29 33 32 27 14 9
243 243 246 248 251 259 269 272 272 275 282 285 293 302 311 316 324 333 338 344 348 357 351 358 1 7 8 12 21 23 18 21 21 20 19 21 25 27 29 35 32 22 7
248 240 237 238 253 265 267 274 271 270 274 281 291 298 306 311 317 327 333 339 346 358 352 353 355 358 10 12 19 21 21 20 25 21 19 19 22 26 28 32 35 32 22
244 239 237 243 252 265 276 275 273 266 269 279 291 297 301 305 310 319 327 335 345 355 351 348 358 359 11 5 11 16 24 22 26 23 22 20 20 24 26 31 34 34 32
240 242 246 252 258 267 269 274 271 267 267 274 282 286 290 297 301 311 322 332 346 350 351 347 354 356 358 5 9 14 18 22 22 24 26 24 22 23 23 26 32 34 33
239 243 248 252 257 264 267 268 268 268 267 271 276 280 288 293 295 304 315 325 342 349 344 347 347 353 356 359 9 9 16 23 19 20 23 27 25 23 25 23 25 30 33
242 244 246 251 256 262 262 261 261 259 260 262 268 273 282 289 289 298 308 316 333 339 337 343 343 350 346 355 2 4 12 15 18 16 22 26 27 27 26 25 24 26 28
242 244 247 251 252 255 258 258 258 257 259 262 267 272 276 281 285 292 301 309 326 323 330 342 342 344 340 345 349 357 5 9 14 13 19 26 29 28 28 29 26 25 26
239 242 246 250 252 253 257 258 257 255 257 261 265 269 271 275 278 286 296 306 319 309 333 341 345 343 334 337 342 352 1 4 10 11 11 23 22 26 28 29 28 27 28
236 239 242 246 252 255 256 254 253 251 252 252 259 263 266 268 273 280 288 295 298 312 321 332 344 345 333 329 339 345 350 0 4 5 10 15 20 21 25 23 28 26 27
234 235 239 245 249 251 255 259 256 251 247 251 257 260 260 261 265 274 282 291 288 301 319 328 328 340 334 330 324 337 341 348 354 359 3 7 13 13 15 17 22 25 24
233 235 235 240 245 248 252 257 255 251 247 253 257 257 256 255 259 269 278 269 273 290 303 315 311 327 331 325 322 325 337 344 347 354 1 3 5 11 12 14 20 16 20
235 234 235 239 243 247 251 255 248 240 242 250 254 252 251 251 256 264 271 276 276 279 290 301 299 310 317 314 323 318 328 340 341 342 351 356 359 1 9 11 12 14 13
236 235 235 238 243 248 248 251 244 238 247 251 251 251 250 250 256 260 267 268 275 281 282 285 301 303 306 308 314 317 313 333 335 338 344 349 354 358 0 5 5 9 12
236 237 239 241 245 248 246 246 244 241 248 250 251 251 247 248 253 256 262 263 264 268 279 285 289 288 302 303 306 313 301 314 330 333 336 342 348 348 351 355 360 4 7
238 237 240 241 242 245 248 247 246 240 244 250 252 248 249 247 252 254 259 264 254 264 277 284 285 277 287 281 294 307 299 298 320 331 332 333 339 341 346 348 352 354 356
Height
11010 11013 11016 11017 11017 11016 11015 11013 11010 11007 11003 10998 10993 10987 10980 10975 10969 10961 10953 10943 10931 10919 10910 10896 10883 10871 10857 10843 10826 10807 10791 10772 10750 10725 10699 10673 10649 10630 10619 10608 10601 10598 10600
11006 11010 11012 11013 11014 11014 11013 11012 11009 11006 11003 10998 10992 10986 10982 10976 10969 10962 10955 10945 10933 10922 10910 10896 10883 10869 10856 10840 10820 10804 10787 10766 10743 10720 10692 10666 10645 10628 10616 10612 10610 10610 10612
11001 11004 11007 11009 11011 11011 11011 11010 11008 11004 11001 10997 10992 10987 10982 10977 10970 10963 10955 10946 10935 10923 10911 10898 10883 10870 10855 10836 10819 10802 10785 10763 10742 10720 10690 10663 10644 10632 10625 10623 10622 10621 10622
10995 10999 11002 11004 11006 11007 11007 11006 11006 11003 10999 10996 10992 10987 10982 10976 10970 10963 10955 10947 10936 10925 10912 10899 10885 10872 10857 10837 10820 10802 10785 10765 10745 10722 10690 10665 10649 10640 10635 10634 10632 10630 10629
10989 10993 10996 10998 11001 11003 11003 11003 11002 11000 10997 10994 10991 10986 10981 10975 10969 10963 10955 10948 10936 10925 10914 10901 10889 10873 10859 10840 10822 10805 10786 10768 10747 10723 10695 10670 10655 10648 10644 10640 10639 10637 10635
10983 10987 10989 10993 10995 10998 10998 10998 10998 10997 10995 10992 10989 10985 10980 10974 10968 10962 10955 10947 10937 10927 10916 10905 10893 10878 10862 10846 10827 10808 10791 10772 10750 10729 10701 10676 10659 10653 10649 10647 10645 10642 10640
10977 10980 10984 10987 10989 10992 10993 10993 10993 10993 10992 10989 10986 10982 10978 10972 10967 10961 10954 10947 10938 10927 10917 10908 10896 10884 10867 10851 10833 10812 10796 10775 10756 10738 10712 10684 10667 10658 10654 10651 10650 10647 10645
10969 10973 10977 10981 10983 10985 10986 10988 10988 10988 10987 10985 10983 10979 10975 10971 10966 10960 10954 10947 10940 10928 10919 10910 10899 10888 10873 10856 10840 10819 10801 10778 10762 10746 10723 10699 10676 10661 10657 10655 10654 10652 10649
10962 10966 10970 10975 10978 10979 10980 10982 10982 10982 10982 10981 10980 10977 10973 10969 10964 10959 10953 10947 10939 10930 10921 10911 10902 10891 10878 10862 10846 10827 10807 10784 10767 10754 10735 10714 10690 10672 10660 10658 10656 10654 10652
10956 10960 10965 10969 10972 10973 10974 10976 10977 10977 10977 10977 10975 10974 10970 10966 10962 10958 10953 10947 10939 10931 10922 10914 10904 10893 10882 10865 10851 10836 10818 10793 10775 10762 10748 10727 10704 10683 10669 10661 10658 10655 10653
10950 10953 10957 10962 10965 10965 10968 10970 10971 10971 10971 10972 10970 10969 10966 10963 10959 10956 10952 10947 10939 10932 10923 10915 10906 10895 10885 10870 10856 10843 10827 10804 10786 10769 10758 10739 10720 10700 10678 10665 10658 10655 10653
10942 10945 10950 10954 10957 10959 10963 10964 10964 10965 10965 10965 10965 10964 10962 10959 10956 10953 10950 10945 10939 10931 10923 10914 10906 10895 10886 10875 10861 10850 10835 10816 10798 10779 10764 10748 10732 10713 10695 10677 10664 10657 10654
10934 10938 10943 10947 10951 10954 10955 10956 10957 10958 10958 10959 10960 10959 10958 10955 10952 10949 10947 10943 10936 10930 10922 10915 10905 10897 10888 10878 10866 10855 10841 10827 10809 10792 10774 10756 10741 10729 10711 10691 10676 10665 10657
10928 10933 10936 10940 10943 10946 10948 10949 10949 10951 10950 10952 10954 10954 10952 10951 10948 10945 10943 10939 10934 10928 10921 10913 10907 10899 10889 10882 10871 10860 10847 10834 10820 10805 10787 10769 10753 10736 10723 10706 10691 10678 10666
10919 10923 10927 10931 10934 10937 10938 10939 10940 10942 10944 10945 10947 10946 10945 10945 10943 10941 10938 10935 10930 10925 10920 10913 10907 10901 10891 10883 10874 10864 10853 10841 10828 10816 10800 10783 10766 10749 10731 10719 10708 10695 10681
10908 10913 10917 10921 10925 10929 10929 10931 10932 10935 10937 10938 10939 10940 10938 10938 10938 10936 10934 10931 10927 10923 10918 10912 10906 10900 10893 10884 10876 10868 10858 10848 10835 10824 10811 10796 10781 10763 10747 10730 10713 10705 10695
10897 10902 10906 10911 10915 10918 10919 10921 10923 10924 10926 10928 10930 10931 10931 10931 10931 10930 10928 10926 10923 10920 10915 10910 10904 10899 10892 10885 10877 10869 10863 10853 10843 10831 10820 10808 10796 10779 10765 10748 10731 10717 10707
10886 10892 10896 10900 10903 10906 10908 10911 10913 10916 10919 10921 10922 10922 10923 10924 10925 10925 10923 10920 10918 10915 10912 10908 10902 10896 10890 10885 10877 10870 10864 10858 10849 10838 10827 10816 10805 10794 10780 10767 10753 10736 10721
10874 10880 10884 10889 10893 10896 10899 10903 10905 10907 10910 10914 10914 10915 10915 10917 10918 10918 10917 10914 10913 10911 10909 10904 10899 10894 10888 10883 10878 10871 10865 10859 10851 10843 10832 10823 10814 10803 10791 10780 10769 10757 10742
10863 10869 10874 10878 10882 10886 10890 10894 10896 10898 10900 10903 10905 10906 10907 10909 10910 10909 10909 10908 10907 10906 10904 10900 10896 10891 10885 10880 10876 10870 10864 10857 10851 10844 10836 10827 10819 10812 10801 10791 10780 10771 10760
10850 10856 10862 10867 10870 10874 10879 10883 10887 10888 10890 10893 10895 10896 10899 10901 10901 10901 10902 10902 10901 10900 10898 10896 10893 10888 10883 10878 10873 10869 10864 10857 10850 10844 10838 10831 10822 10815 10807 10799 10788 10779 10770
10838 10845 10850 10854 10859 10863 10868 10872 10875 10877 10880 10882 10884 10886 10890 10893 10894 10894 10894 10895 10893 10893 10892 10890 10887 10884 10879 10875 10869 10865 10861 10856 10850 10844 10839 10833 10826 10817 10810 10804 10795 10785 10778
10827 10832 10837 10843 10847 10853 10857 10861 10863 10865 10869 10871 10874 10877 10881 10884 10885 10886 10887 10889 10887 10886 10886 10883 10881 10879 10875 10871 10867 10862 10858 10853 10849 10842 10838 10833 10827 10820 10813 10807 10798 10792 10785
10814 10820 10825 10830 10835 10841 10846 10849 10852 10856 10859 10862 10864 10866 10871 10873 10876 10877 10878 10880 10880 10879 10878 10877 10875 10872 10869 10866 10862 10857 10854 10850 10847 10842 10836 10832 10829 10822 10814 10808 10804 10796 10788
10802 10807 10813 10819 10824 10829 10834 10837 10841 10845 10848 10851 10854 10856 10860 10863 10865 10867 10869 10870 10869 10869 10869 10869 10869 10865 10862 10858 10856 10853 10848 10845 10843 10839 10836 10830 10827 10822 10816 10809 10802 10799 10792
10789 10795 10800 10806 10812 10816 10820 10824 10828 10833 10836 10840 10843 10846 10850 10852 10854 10857 10857 10857 10858 10858 10857 10855 10854 10854 10851 10848 10848 10846 10843 10840 10837 10834 10831 10827 10824 10820 10813 10807 10802 10797 10792